Lambert St Louis International Airport
KSTL : now visible

Airfield :











YOU CAN JOIN US ON...

 
LOGIN :

Register | Disclaimer

   EN    FR    IT 

 









Legend :    VFR   Marginal VFR   IFR   Intensive IFR   Very Intensive IFR
Visi :
Ceiling :
>= 8 km
>= 3000ft
5 to 8 km
1000 to 3000 ft
1500m to 5 km
500 to 1000 ft
800 to 1500m
200 to 500 ft
< 800m
< 200 ft
Symbols :   Thunderstorms  Fog  Heavy snow  Heavy precipitations  Wind > 20 kt






- Airport Elevation : 618 ft
- IATA code : STL


KSTL - Lambert St Louis International

CURRENT METAR :
  • 160951Z 00000KT 10SM BKN140 OVC200 07/02 A3003 RMK AO2 SLP169 T00720022

EXPIRED METARs :
  • 160851Z 02004KT 10SM BKN190 07/02 A3005 RMK AO2 SLP175 T00720022 58003
  • 160751Z 36004KT 10SM SCT200 07/02 A3005 RMK AO2 SLP176 T00720022

TAF KSTL
Valid from the 16 at 09:00 until the 17 at 12:00 UTC


160846Z 1609/1712 35004KT P6SM SCT150 BKN250
FM170000 04005KT P6SM VCSH OVC050
FM170300 02004KT 6SM -SHRA BR OVC030
FM170700 36004KT 4SM -SHRA BR OVC015
KZKC FIR / North America



MET'MAP, your aeronautical weather chart ! - Copyright ORBIFLY December 2007 - Disclaimer

ORBIFLY MET'MAP TEAM :

Programming & Development : Alexandra Zaïnal
Concept & original design : Baudouin d'Aumeries
Assistance for programming : Marc-Olivier Méhu
Technical & hardware support : Manuel Goepfert

Contact : metmap@orbifly.com




SOURCES & CREDITS :

   NOAA       Earth
Advisory